SCP
-0 -0 -0 -0 -0 0 0 0 0 0 0 0 -0 -0 0 0 -0 0 0 -0 0 0 0 0 0 0 0 0 0 0 0 0 -0 -0 0 -0 -0 0 -0 -0 0 0 0 0 -0
-0 -0 0 0 -0 0 0 0 0 0 0 -0 -0 0 0 0 0 0 0 0 0 0 0 0 0 0 0 0 0 0 0 0 -0 -0 0 -0 -0 -0 0 -0 0 -0 -0 -0 -0
0 0 0 0 0 0 -0 -0 -0 -0 -0 -0 0 0 0 0 0 0 0 0 0 0 0 0 0 0 0 0 0 0 0 0 0 0 -0 -0 -0 -0 -0 -0 -0 -0 -0 -0 -0
0 0 0 -0 -0 -0 -0 -0 -0 -0 0 -0 0 0 0 0 0 0 0 0 0 0 0 0 0 0 0 0 0 0 0 0 0 -0 -0 -0 -0 0 -0 0 0 -0 -1 -0 -0
-0 -0 -0 -0 -0 -0 -0 -0 -0 -0 -0 0 0 0 0 0 0 0 0 0 0 0 0 0 0 0 0 0 0 0 0 0 0 -0 0 -0 -0 0 -0 0 -0 -1 -1 -0 -0
-0 -0 -0 -0 -0 -0 -0 -0 -0 -0 -0 0 0 0 0 0 0 0 -0 0 0 0 0 0 0 0 0 0 0 0 0 -0 0 0 -0 -0 -0 -0 -0 -0 -0 -1 -1 -0 -0
-0 -0 -0 -0 -0 -0 -0 -0 -0 -0 -0 0 0 0 0 0 0 -0 0 0 0 0 0 0 0 0 0 0 0 0 0 0 0 0 0 -0 -0 -0 -0 -0 -0 -0 -0 -0 -0
-0 -0 -0 -0 -0 -0 -0 -0 -0 -0 0 0 0 0 0 0 -0 -0 0 -0 0 0 0 0 0 0 0 0 0 0 -0 0 0 -0 0 -0 -0 -0 -0 -0 -0 -0 -0 -0 -0
-0 -0 -0 -0 -0 -0 -0 -0 -0 0 -0 -0 -0 0 -0 0 0 -0 -0 -0 -0 -0 0 0 0 0 0 0 0 -0 -0 -0 0 -0 0 -0 -0 0 -0 -0 -0 -0 -0 -0 -0
-0 -0 -0 -0 -0 -0 -0 -0 0 0 0 0 0 0 0 0 0 0 0 0 0 -0 -0 -0 -0 -0 0 0 -0 -0 0 0 -0 0 -0 -0 -0 0 -0 -0 -0 -0 -0 -0 -0
-0 -0 -0 -0 -0 -0 -0 0 0 0 0 0 0 0 0 0 0 0 0 0 0 -0 -0 -0 -0 -0 -0 -0 0 0 0 -0 -0 -0 -0 -0 -0 -0 -0 -0 -0 -0 -0 0 -0
-0 -0 -0 -0 -0 -0 0 0 -0 0 0 0 -0 0 0 0 0 0 0 -0 -0 -0 -0 -0 -0 0 0 0 0 0 0 0 -0 -0 0 -0 -0 -0 -0 -0 -0 -0 -0 -0 0
-0 -0 -0 -0 -0 0 0 0 0 0 0 0 0 0 0 0 0 0 0 0 -0 -0 -0 -0 -0 -0 -0 -0 -0 0 0 0 0 -0 0 0 -0 0 0 -0 -0 -0 -0 -0 -0
-0 -0 -0 -0 0 0 0 0 0 0 0 0 0 0 0 0 0 0 0 0 0 0 0 -0 -0 -0 0 0 0 0 0 0 -0 0 0 0 -0 0 0 -0 -0 -0 -0 -0 -0
0 0 0 0 0 0 0 0 0 -0 0 0 0 0 0 0 0 0 0 0 0 0 0 0 -0 -0 0 0 0 -0 0 0 0 0 0 0 0 0 0 -0 -0 -0 -0 -0 -0
0 0 0 0 0 0 0 0 0 0 0 0 0 0 0 0 0 0 0 0 0 0 0 0 0 -0 -0 0 0 -0 0 0 0 0 0 0 0 -0 0 0 -0 0 -0 -0 -0
0 0 0 0 0 0 0 0 0 0 0 0 0 0 0 0 0 0 0 0 0 0 0 -0 -0 -0 0 0 0 0 0 0 0 0 0 0 0 0 -0 0 0 -0 0 0 -0
0 0 0 0 0 0 0 0 0 0 0 0 0 0 0 0 0 0 0 0 0 0 0 0 0 0 0 0 -0 -0 0 0 0 0 0 0 0 0 0 0 0 0 0 0 0
0 0 0 0 0 0 0 0 0 0 0 0 0 0 0 0 0 0 0 0 0 0 0 0 0 0 0 0 0 0 0 0 0 0 0 0 0 0 0 0 0 0 0 0 0
0 0 0 0 0 0 0 0 0 0 0 0 0 0 0 0 0 0 0 0 0 0 0 0 0 0 -0 0 0 0 0 0 0 0 0 0 0 0 0 -0 0 0 0 0 0
0 0 0 0 0 0 0 0 0 0 0 0 0 0 0 0 0 0 0 0 0 0 0 0 0 -0 0 0 0 0 0 0 0 0 0 0 0 0 0 0 0 0 0 0 0
0 0 0 0 0 0 0 0 0 0 0 0 0 0 0 0 0 0 0 0 0 0 0 0 0 0 -0 0 0 0 0 0 0 0 0 0 0 0 0 0 0 0 1 0 0
0 0 0 0 0 0 0 0 0 0 0 0 0 0 0 0 0 0 0 0 0 0 0 0 0 0 0 0 0 0 0 0 0 0 0 0 0 0 0 0 0 1 0 0 0
0 0 0 0 0 0 0 0 0 0 0 0 0 0 0 0 0 0 0 0 0 0 0 0 0 0 0 0 0 0 0 0 0 0 0 0 0 0 0 0 0 0 0 0 0
0 0 0 0 0 0 0 0 0 0 0 0 0 0 0 0 0 0 0 0 0 0 0 0 0 0 0 0 0 0 0 0 0 0 0 0 0 0 0 0 0 1 1 0 0
0 0 0 0 0 0 0 0 0 0 0 0 0 0 0 0 0 0 0 0 0 0 0 0 0 0 0 0 0 0 0 0 0 0 0 0 0 0 0 0 0 1 1 0 0
0 0 0 0 0 0 0 0 0 0 0 0 0 0 0 0 0 0 0 0 0 0 0 0 0 0 0 0 0 0 0 0 0 0 0 0 0 0 0 0 0 1 1 0 0
Wind_Speed_500mb
8 7 7 7 7 7 6 7 9 10 11 12 11 12 12 12 15 12 7 6 12 22 23 15 11 3 2 6 8 3 2 4 6 6 5 18 13 15 5 29 6 2 13 26 47
9 8 8 8 7 7 7 7 7 7 8 10 11 13 15 18 8 2 13 16 16 16 21 18 7 3 2 3 4 4 3 2 5 5 5 25 18 23 10 28 7 14 25 43 49
10 9 9 8 7 7 7 8 8 8 9 10 12 14 15 11 8 9 13 19 16 16 19 14 8 4 5 2 1 2 3 1 2 11 2 24 18 20 16 19 16 31 49 47 50
12 11 11 11 10 9 9 8 9 9 9 10 12 14 14 6 6 10 19 16 14 12 15 13 9 1 4 6 2 6 10 9 1 17 14 23 20 12 25 4 10 36 56 52 47
14 13 12 12 10 9 9 9 9 10 9 9 10 13 11 4 7 14 17 17 18 16 10 9 7 5 8 10 6 6 8 7 8 8 7 21 23 12 25 4 23 44 51 53 47
15 14 14 13 13 11 10 10 10 11 10 10 10 12 9 1 3 10 23 20 22 21 14 10 6 10 3 9 5 17 19 20 9 18 15 23 15 17 14 23 35 48 51 48 50
17 17 16 15 15 14 12 11 11 12 11 11 11 11 9 6 5 10 21 19 15 20 10 10 13 11 18 12 9 17 8 2 3 12 11 19 10 24 21 34 42 46 45 47 48
20 18 16 15 15 15 14 12 11 11 12 12 12 13 6 5 7 10 17 20 17 12 12 5 13 13 6 17 9 4 5 10 7 10 7 13 20 21 32 43 43 46 45 47 47
22 22 21 18 14 14 13 12 12 11 11 12 11 8 4 4 10 10 15 10 14 12 11 9 9 5 7 10 2 8 7 14 6 16 9 18 21 6 36 41 41 49 50 49 47
22 22 21 20 18 12 10 9 10 12 13 14 17 8 11 4 3 11 24 18 8 10 4 3 1 2 2 6 10 15 8 6 15 8 19 19 33 6 28 37 41 45 49 51 51
23 22 22 19 16 13 8 5 8 8 14 12 3 4 12 6 6 6 25 25 12 6 5 3 7 7 11 10 12 13 8 4 17 8 10 26 33 17 24 34 39 45 49 51 54
23 22 21 20 17 9 4 4 8 2 11 21 35 37 29 11 5 7 23 17 11 10 9 6 16 15 12 17 14 5 7 9 3 6 11 16 28 22 27 43 51 52 53 57 53
26 22 20 18 14 0 9 10 3 14 6 10 21 26 33 27 18 18 27 17 10 14 18 19 5 11 15 11 15 5 6 18 13 2 3 7 17 14 15 37 38 53 52 57 60
27 23 18 15 2 3 10 12 9 4 4 7 6 6 22 20 11 30 33 16 11 15 14 12 5 12 7 9 5 10 6 19 28 8 8 3 12 12 9 27 32 49 57 65 64
29 24 17 11 8 8 12 7 3 8 6 5 5 2 14 20 14 24 39 24 23 17 10 8 13 9 13 7 3 9 13 14 8 6 6 8 8 13 7 22 31 43 54 63 66
28 25 18 11 9 14 11 2 9 2 8 3 5 7 10 11 7 12 16 11 10 11 10 13 2 7 6 8 17 25 8 4 6 5 9 2 10 15 14 15 8 8 24 50 59
26 25 18 10 7 19 11 17 3 6 5 4 2 5 6 13 16 10 12 18 18 11 19 15 25 9 15 18 7 10 11 8 9 9 16 3 10 20 25 24 20 25 20 19 36
26 21 16 12 19 20 16 4 8 3 9 5 5 1 7 9 8 22 11 14 5 6 4 11 21 11 10 23 22 14 9 11 16 17 23 5 13 12 15 10 16 17 11 11 13
23 16 10 16 26 26 17 8 7 9 4 11 3 8 4 4 5 10 27 24 14 23 21 10 15 5 12 5 11 9 12 4 4 3 5 5 12 24 20 18 20 10 8 10 13
20 6 5 13 27 31 6 9 5 5 6 4 4 2 6 9 3 5 16 12 24 33 35 18 22 22 28 4 2 15 16 7 3 6 12 8 9 16 24 23 12 4 5 10 12
11 7 9 15 33 16 12 9 8 11 7 6 1 6 4 8 2 4 7 8 12 4 30 26 19 40 9 15 17 9 9 4 3 5 10 11 8 10 17 14 15 10 3 9 8
5 4 19 20 7 1 7 8 3 3 7 8 5 12 11 8 7 8 13 14 20 20 18 18 9 26 45 21 9 17 22 18 10 9 6 6 12 4 10 9 12 5 9 6 8
5 8 15 7 5 5 3 4 6 4 4 2 5 10 3 5 6 11 10 8 18 18 17 19 13 13 9 9 6 14 17 16 9 3 15 10 12 8 5 9 9 9 8 7 8
3 4 4 2 6 4 4 3 2 6 11 9 8 6 5 11 13 11 9 5 8 10 13 26 10 13 21 8 4 9 14 23 23 11 14 19 23 24 14 17 21 17 13 15 13
9 4 3 4 3 3 4 3 3 3 7 5 4 16 14 10 6 12 12 18 16 10 9 13 13 9 19 15 9 16 17 28 26 21 16 19 15 27 6 16 15 17 18 21 18
7 6 5 2 4 5 3 6 5 3 5 2 6 21 13 14 17 10 14 7 12 5 11 9 7 10 5 8 1 5 14 21 25 13 23 19 25 3 9 9 17 18 17 18 20
21 12 5 3 1 5 5 3 4 3 9 18 12 15 11 4 22 38 32 34 19 8 6 5 10 8 19 7 7 12 16 25 15 15 16 17 13 10 7 15 26 26 22 21 20
Wind_Direction_500mb
19 2 342 338 344 337 334 333 331 340 340 344 347 342 338 326 310 283 269 174 180 179 172 160 154 115 26 43 35 58 99 137 139 170 112 172 157 152 131 145 143 113 155 165 159
14 357 342 338 340 325 326 318 321 324 332 341 343 344 344 337 352 126 163 148 131 170 184 186 174 66 38 44 28 5 54 217 189 169 178 173 184 154 146 167 124 104 140 156 159
5 352 340 336 332 322 315 315 315 321 335 345 345 347 351 4 83 65 155 159 151 103 127 176 205 3 1 353 66 86 316 20 252 193 129 162 167 168 160 201 206 167 156 161 166
358 351 339 333 331 323 312 308 306 314 331 340 347 345 1 43 87 108 154 147 173 171 127 147 157 37 359 2 317 301 244 241 185 172 147 170 165 186 189 200 223 175 167 165 172
358 347 339 329 322 313 304 300 299 304 320 331 339 349 13 19 95 159 182 170 177 181 161 129 76 6 1 329 289 244 314 318 239 145 162 158 186 197 212 277 159 161 169 172 177
358 348 337 330 323 315 306 298 294 294 307 318 329 343 344 222 154 146 196 192 193 184 188 147 99 349 311 325 276 317 299 300 245 218 196 178 195 189 186 163 158 167 176 182 184
355 349 341 331 323 316 308 297 289 287 291 303 313 322 289 263 185 143 180 206 208 214 238 269 303 341 322 303 327 299 318 336 82 166 172 160 188 222 179 173 169 178 182 189 193
347 344 340 333 325 313 304 296 287 286 291 301 308 316 272 227 216 191 174 199 215 227 241 297 322 314 292 308 322 318 61 347 18 150 144 221 265 208 182 179 184 184 188 194 201
339 339 339 338 331 312 301 290 279 276 276 280 290 303 250 288 223 194 181 185 221 229 235 257 332 337 328 336 22 42 353 334 303 205 165 217 277 170 186 194 190 191 194 199 201
333 333 335 335 331 316 296 278 279 282 279 280 266 286 247 114 131 209 189 183 143 150 173 189 188 288 254 343 16 335 329 298 286 198 214 231 256 234 195 204 208 199 199 205 206
329 329 330 332 324 313 291 253 271 271 239 225 154 198 133 135 107 175 189 181 140 137 181 167 259 285 292 265 299 293 257 290 286 275 259 248 264 259 210 214 216 209 206 208 217
325 328 326 327 324 304 247 148 108 15 300 251 246 246 235 224 325 185 180 171 178 203 166 190 260 258 257 282 268 279 353 6 227 335 215 295 277 262 220 227 222 215 213 216 219
320 323 323 325 327 95 173 165 49 349 285 274 235 238 238 233 220 219 185 185 187 198 209 235 205 164 245 275 309 334 357 352 338 344 158 291 277 251 235 239 237 230 223 223 222
313 315 318 322 325 330 166 171 310 297 322 271 228 214 197 186 239 225 209 183 190 225 186 239 255 211 177 327 324 327 336 334 316 304 308 268 296 285 268 262 236 238 226 226 224
313 310 310 299 289 160 162 300 289 139 315 102 173 172 181 190 138 200 201 200 214 198 196 197 186 190 315 303 227 299 358 342 345 200 273 185 252 286 321 281 257 246 233 232 227
316 306 301 286 241 187 191 143 127 218 251 17 146 166 155 215 197 128 178 208 205 183 220 257 233 275 259 254 259 291 280 100 82 201 250 304 241 283 263 246 296 295 256 242 230
316 304 294 265 190 185 175 148 180 220 350 27 48 187 212 188 212 182 170 192 203 195 237 267 263 249 226 258 222 205 246 268 246 241 301 356 217 256 265 254 275 293 284 264 234
317 301 281 231 200 186 168 173 217 219 254 332 345 99 211 175 223 202 172 194 204 165 160 249 262 229 177 225 245 201 232 254 278 282 311 162 237 260 262 271 264 267 277 318 271
324 307 258 205 195 178 171 201 230 210 314 332 332 62 42 107 279 203 220 234 210 188 223 204 253 265 234 193 203 157 204 320 185 104 255 214 261 277 274 270 262 285 272 306 319
336 305 192 191 182 176 177 225 239 231 313 337 48 41 42 339 343 207 193 215 232 203 214 227 265 258 277 229 189 242 143 198 226 237 271 235 272 279 297 304 345 254 247 1 353
350 128 356 161 156 165 207 217 243 248 259 342 92 325 290 308 259 240 225 239 214 162 214 225 236 259 249 225 211 156 202 179 243 220 281 287 275 228 265 310 316 320 89 38 29
53 113 135 139 122 41 168 192 242 265 199 268 252 243 244 254 252 242 233 245 174 155 170 201 223 249 245 260 266 254 244 208 264 220 227 293 270 161 272 293 273 129 106 65 109
56 99 161 66 160 160 216 222 232 236 262 220 262 232 206 234 273 236 245 261 173 179 174 168 215 249 243 176 165 220 213 233 210 201 202 238 273 157 226 243 158 157 114 109 121
29 125 103 71 84 125 134 131 252 226 255 238 256 211 218 261 243 276 269 262 190 205 190 172 184 234 261 310 62 197 198 193 207 201 214 235 280 282 243 226 181 165 143 120 121
26 70 87 161 166 225 220 178 254 291 243 267 236 233 223 231 232 239 252 271 257 172 119 200 231 202 269 277 245 261 214 187 201 216 230 292 233 270 12 273 216 162 128 119 124
48 8 10 66 298 226 183 186 193 210 251 251 237 317 269 243 251 282 314 258 278 173 177 180 232 199 200 255 245 275 251 217 223 239 253 252 272 290 22 128 145 145 136 130 136
23 5 7 320 226 223 168 165 209 326 229 247 308 310 297 200 292 281 265 272 280 293 208 212 176 203 249 197 270 246 242 239 220 221 240 220 248 123 123 163 159 150 159 159 145
Wind_Speed_850mb
8 7 7 7 7 7 6 7 9 10 11 12 11 12 12 12 15 12 7 6 12 22 23 15 11 3 2 6 8 3 2 4 6 6 5 18 13 15 5 29 6 2 13 26 47
9 8 8 8 7 7 7 7 7 7 8 10 11 13 15 18 8 2 13 16 16 16 21 18 7 3 2 3 4 4 3 2 5 5 5 25 18 23 10 28 7 14 25 43 49
10 9 9 8 7 7 7 8 8 8 9 10 12 14 15 11 8 9 13 19 16 16 19 14 8 4 5 2 1 2 3 1 2 11 2 24 18 20 16 19 16 31 49 47 50
12 11 11 11 10 9 9 8 9 9 9 10 12 14 14 6 6 10 19 16 14 12 15 13 9 1 4 6 2 6 10 9 1 17 14 23 20 12 25 4 10 36 56 52 47
14 13 12 12 10 9 9 9 9 10 9 9 10 13 11 4 7 14 17 17 18 16 10 9 7 5 8 10 6 6 8 7 8 8 7 21 23 12 25 4 23 44 51 53 47
15 14 14 13 13 11 10 10 10 11 10 10 10 12 9 1 3 10 23 20 22 21 14 10 6 10 3 9 5 17 19 20 9 18 15 23 15 17 14 23 35 48 51 48 50
17 17 16 15 15 14 12 11 11 12 11 11 11 11 9 6 5 10 21 19 15 20 10 10 13 11 18 12 9 17 8 2 3 12 11 19 10 24 21 34 42 46 45 47 48
20 18 16 15 15 15 14 12 11 11 12 12 12 13 6 5 7 10 17 20 17 12 12 5 13 13 6 17 9 4 5 10 7 10 7 13 20 21 32 43 43 46 45 47 47
22 22 21 18 14 14 13 12 12 11 11 12 11 8 4 4 10 10 15 10 14 12 11 9 9 5 7 10 2 8 7 14 6 16 9 18 21 6 36 41 41 49 50 49 47
22 22 21 20 18 12 10 9 10 12 13 14 17 8 11 4 3 11 24 18 8 10 4 3 1 2 2 6 10 15 8 6 15 8 19 19 33 6 28 37 41 45 49 51 51
23 22 22 19 16 13 8 5 8 8 14 12 3 4 12 6 6 6 25 25 12 6 5 3 7 7 11 10 12 13 8 4 17 8 10 26 33 17 24 34 39 45 49 51 54
23 22 21 20 17 9 4 4 8 2 11 21 35 37 29 11 5 7 23 17 11 10 9 6 16 15 12 17 14 5 7 9 3 6 11 16 28 22 27 43 51 52 53 57 53
26 22 20 18 14 0 9 10 3 14 6 10 21 26 33 27 18 18 27 17 10 14 18 19 5 11 15 11 15 5 6 18 13 2 3 7 17 14 15 37 38 53 52 57 60
27 23 18 15 2 3 10 12 9 4 4 7 6 6 22 20 11 30 33 16 11 15 14 12 5 12 7 9 5 10 6 19 28 8 8 3 12 12 9 27 32 49 57 65 64
29 24 17 11 8 8 12 7 3 8 6 5 5 2 14 20 14 24 39 24 23 17 10 8 13 9 13 7 3 9 13 14 8 6 6 8 8 13 7 22 31 43 54 63 66
28 25 18 11 9 14 11 2 9 2 8 3 5 7 10 11 7 12 16 11 10 11 10 13 2 7 6 8 17 25 8 4 6 5 9 2 10 15 14 15 8 8 24 50 59
26 25 18 10 7 19 11 17 3 6 5 4 2 5 6 13 16 10 12 18 18 11 19 15 25 9 15 18 7 10 11 8 9 9 16 3 10 20 25 24 20 25 20 19 36
26 21 16 12 19 20 16 4 8 3 9 5 5 1 7 9 8 22 11 14 5 6 4 11 21 11 10 23 22 14 9 11 16 17 23 5 13 12 15 10 16 17 11 11 13
23 16 10 16 26 26 17 8 7 9 4 11 3 8 4 4 5 10 27 24 14 23 21 10 15 5 12 5 11 9 12 4 4 3 5 5 12 24 20 18 20 10 8 10 13
20 6 5 13 27 31 6 9 5 5 6 4 4 2 6 9 3 5 16 12 24 33 35 18 22 22 28 4 2 15 16 7 3 6 12 8 9 16 24 23 12 4 5 10 12
11 7 9 15 33 16 12 9 8 11 7 6 1 6 4 8 2 4 7 8 12 4 30 26 19 40 9 15 17 9 9 4 3 5 10 11 8 10 17 14 15 10 3 9 8
5 4 19 20 7 1 7 8 3 3 7 8 5 12 11 8 7 8 13 14 20 20 18 18 9 26 45 21 9 17 22 18 10 9 6 6 12 4 10 9 12 5 9 6 8
5 8 15 7 5 5 3 4 6 4 4 2 5 10 3 5 6 11 10 8 18 18 17 19 13 13 9 9 6 14 17 16 9 3 15 10 12 8 5 9 9 9 8 7 8
3 4 4 2 6 4 4 3 2 6 11 9 8 6 5 11 13 11 9 5 8 10 13 26 10 13 21 8 4 9 14 23 23 11 14 19 23 24 14 17 21 17 13 15 13
9 4 3 4 3 3 4 3 3 3 7 5 4 16 14 10 6 12 12 18 16 10 9 13 13 9 19 15 9 16 17 28 26 21 16 19 15 27 6 16 15 17 18 21 18
7 6 5 2 4 5 3 6 5 3 5 2 6 21 13 14 17 10 14 7 12 5 11 9 7 10 5 8 1 5 14 21 25 13 23 19 25 3 9 9 17 18 17 18 20
21 12 5 3 1 5 5 3 4 3 9 18 12 15 11 4 22 38 32 34 19 8 6 5 10 8 19 7 7 12 16 25 15 15 16 17 13 10 7 15 26 26 22 21 20
Wind_Direction_850mb
19 2 342 338 344 337 334 333 331 340 340 344 347 342 338 326 310 283 269 174 180 179 172 160 154 115 26 43 35 58 99 137 139 170 112 172 157 152 131 145 143 113 155 165 159
14 357 342 338 340 325 326 318 321 324 332 341 343 344 344 337 352 126 163 148 131 170 184 186 174 66 38 44 28 5 54 217 189 169 178 173 184 154 146 167 124 104 140 156 159
5 352 340 336 332 322 315 315 315 321 335 345 345 347 351 4 83 65 155 159 151 103 127 176 205 3 1 353 66 86 316 20 252 193 129 162 167 168 160 201 206 167 156 161 166
358 351 339 333 331 323 312 308 306 314 331 340 347 345 1 43 87 108 154 147 173 171 127 147 157 37 359 2 317 301 244 241 185 172 147 170 165 186 189 200 223 175 167 165 172
358 347 339 329 322 313 304 300 299 304 320 331 339 349 13 19 95 159 182 170 177 181 161 129 76 6 1 329 289 244 314 318 239 145 162 158 186 197 212 277 159 161 169 172 177
358 348 337 330 323 315 306 298 294 294 307 318 329 343 344 222 154 146 196 192 193 184 188 147 99 349 311 325 276 317 299 300 245 218 196 178 195 189 186 163 158 167 176 182 184
355 349 341 331 323 316 308 297 289 287 291 303 313 322 289 263 185 143 180 206 208 214 238 269 303 341 322 303 327 299 318 336 82 166 172 160 188 222 179 173 169 178 182 189 193
347 344 340 333 325 313 304 296 287 286 291 301 308 316 272 227 216 191 174 199 215 227 241 297 322 314 292 308 322 318 61 347 18 150 144 221 265 208 182 179 184 184 188 194 201
339 339 339 338 331 312 301 290 279 276 276 280 290 303 250 288 223 194 181 185 221 229 235 257 332 337 328 336 22 42 353 334 303 205 165 217 277 170 186 194 190 191 194 199 201
333 333 335 335 331 316 296 278 279 282 279 280 266 286 247 114 131 209 189 183 143 150 173 189 188 288 254 343 16 335 329 298 286 198 214 231 256 234 195 204 208 199 199 205 206
329 329 330 332 324 313 291 253 271 271 239 225 154 198 133 135 107 175 189 181 140 137 181 167 259 285 292 265 299 293 257 290 286 275 259 248 264 259 210 214 216 209 206 208 217
325 328 326 327 324 304 247 148 108 15 300 251 246 246 235 224 325 185 180 171 178 203 166 190 260 258 257 282 268 279 353 6 227 335 215 295 277 262 220 227 222 215 213 216 219
320 323 323 325 327 95 173 165 49 349 285 274 235 238 238 233 220 219 185 185 187 198 209 235 205 164 245 275 309 334 357 352 338 344 158 291 277 251 235 239 237 230 223 223 222
313 315 318 322 325 330 166 171 310 297 322 271 228 214 197 186 239 225 209 183 190 225 186 239 255 211 177 327 324 327 336 334 316 304 308 268 296 285 268 262 236 238 226 226 224
313 310 310 299 289 160 162 300 289 139 315 102 173 172 181 190 138 200 201 200 214 198 196 197 186 190 315 303 227 299 358 342 345 200 273 185 252 286 321 281 257 246 233 232 227
316 306 301 286 241 187 191 143 127 218 251 17 146 166 155 215 197 128 178 208 205 183 220 257 233 275 259 254 259 291 280 100 82 201 250 304 241 283 263 246 296 295 256 242 230
316 304 294 265 190 185 175 148 180 220 350 27 48 187 212 188 212 182 170 192 203 195 237 267 263 249 226 258 222 205 246 268 246 241 301 356 217 256 265 254 275 293 284 264 234
317 301 281 231 200 186 168 173 217 219 254 332 345 99 211 175 223 202 172 194 204 165 160 249 262 229 177 225 245 201 232 254 278 282 311 162 237 260 262 271 264 267 277 318 271
324 307 258 205 195 178 171 201 230 210 314 332 332 62 42 107 279 203 220 234 210 188 223 204 253 265 234 193 203 157 204 320 185 104 255 214 261 277 274 270 262 285 272 306 319
336 305 192 191 182 176 177 225 239 231 313 337 48 41 42 339 343 207 193 215 232 203 214 227 265 258 277 229 189 242 143 198 226 237 271 235 272 279 297 304 345 254 247 1 353
350 128 356 161 156 165 207 217 243 248 259 342 92 325 290 308 259 240 225 239 214 162 214 225 236 259 249 225 211 156 202 179 243 220 281 287 275 228 265 310 316 320 89 38 29
53 113 135 139 122 41 168 192 242 265 199 268 252 243 244 254 252 242 233 245 174 155 170 201 223 249 245 260 266 254 244 208 264 220 227 293 270 161 272 293 273 129 106 65 109
56 99 161 66 160 160 216 222 232 236 262 220 262 232 206 234 273 236 245 261 173 179 174 168 215 249 243 176 165 220 213 233 210 201 202 238 273 157 226 243 158 157 114 109 121
29 125 103 71 84 125 134 131 252 226 255 238 256 211 218 261 243 276 269 262 190 205 190 172 184 234 261 310 62 197 198 193 207 201 214 235 280 282 243 226 181 165 143 120 121
26 70 87 161 166 225 220 178 254 291 243 267 236 233 223 231 232 239 252 271 257 172 119 200 231 202 269 277 245 261 214 187 201 216 230 292 233 270 12 273 216 162 128 119 124
48 8 10 66 298 226 183 186 193 210 251 251 237 317 269 243 251 282 314 258 278 173 177 180 232 199 200 255 245 275 251 217 223 239 253 252 272 290 22 128 145 145 136 130 136
23 5 7 320 226 223 168 165 209 326 229 247 308 310 297 200 292 281 265 272 280 293 208 212 176 203 249 197 270 246 242 239 220 221 240 220 248 123 123 163 159 150 159 159 145